Regional Weather Roundup
Issued by NWS

Home | Current Version | Previous Version | Text Only | Print | Product List | Glossary On
Versions: 1 2 3 4 5 6 7 8 9 10 11 12 13 14 15 16 17 18 19 20 21 22 23 24 25 26 27 28 29 30 31 32 33 34 35 36 37 38 39 40 41 42 43 44 45 46 47 48 49 50
000
ASUS43 KBIS 251320
RWRND

NORTH DAKOTA REGIONAL WEATHER ROUNDUP
NATIONAL WEATHER SERVICE BISMARCK ND
800 AM CDT SAT OCT 25 2014

NOTE: "FAIR" INDICATES FEW OR NO CLOUDS BELOW 12,000 FEET WITH NO
SIGNIFICANT WEATHER AND/OR OBSTRUCTIONS TO VISIBILITY.


NDZ001>003-009>011-017-251400-
NORTHWEST NORTH DAKOTA

CITY           SKY/WX    TMP DP  RH WIND       PRES   REMARKS
WILLISTON      MOCLDY    34  28  79 CALM      30.12R
MINOT          PTCLDY    36  29  75 SW8       30.10S
MINOT AFB      PTCLDY    31  28  90 W10       30.09S
$$

NDZ018>021-031>035-040>046-251400-
SOUTHWEST NORTH DAKOTA

CITY           SKY/WX    TMP DP  RH WIND       PRES   REMARKS
BISMARCK       PTCLDY    36  30  79 SE3       30.14R
DICKINSON      MOCLDY    33  27  78 SW7       30.12R
GARRISON         N/A     38  32  79 CALM      30.12R
HETTINGER ARPT PTCLDY    30  25  81 W3        30.16R
$$

NDZ004>008-012>016-024-026-027-054-251400-
NORTHEAST NORTH DAKOTA

CITY           SKY/WX    TMP DP  RH WIND       PRES   REMARKS
GRAND FORKS    CLEAR     39  32  76 W7        30.04R
GRND FRKS AFB  CLEAR     38  32  78 NW8       30.05R
DEVILS LAKE    CLEAR     39  28  65 W12       30.06R
$$

NDZ022-023-025-028>030-036>039-047>053-251400-
SOUTHEAST NORTH DAKOTA

CITY           SKY/WX    TMP DP  RH WIND       PRES   REMARKS
FARGO          CLEAR     40  31  70 W10       30.06R
JAMESTOWN      PTCLDY    38  32  79 NW7       30.09S
$$




USA.gov is the U.S. government's official web portal to all federal, state and local government web resources and services.